This demonstration page uses our WeatherBlox Daily Observations layout. Learn more.

Left ArrowRight Arrow

39.92423, -83.80882

Hourly Observations for September 11, 2015

Temp ( °F °C ) Dew Point ( °F °C ) Humidity (%) Winds ( mph kmh ) Pressure ( in mb ) Visibility ( mi km ) Precip ( " mm )
12:56 am 00:56 Clear 60 15.5 54 12.2 81 81 Calm 29.88 1012 10 16.0934 0 0
1:56 am 01:56 Clear 58 14.4 54 12.2 87 87 Calm 29.89 1012 10 16.0934 0 0
2:56 am 02:56 Clear 56 13.3 54 12.2 93 93 Calm 29.89 1012 10 16.0934 0 0
3:56 am 03:56 Clear 56 13.3 54 12.2 93 93 N 5 7 29.9 1012 10 16.0934 0 0
4:56 am 04:56 Clear 55 12.7 53 11.6 93 93 Calm 29.89 1012 10 16.0934 0 0
5:56 am 05:56 Clear 54 12.2 53 11.6 96 96 Calm 29.9 1012 10 16.0934 0 0
6:56 am 06:56 Clear 53 11.6 52 11.1 97 97 ENE 3 6 29.9 1013 10 16.0934 0 0
7:56 am 07:56 Sunny 55 12.7 54 12.2 97 97 ESE 3 6 29.91 1013 10 16.0934 0 0
8:56 am 08:56 Sunny 63 17.2 58 14.4 84 84 ESE 3 6 29.92 1013 10 16.0934 0 0
9:56 am 09:56 Sunny 71 21.6 57 13.8 61 61 VRB 3 6 29.91 1013 10 16.0934 0 0
10:56 am 10:56 Sunny 76 24.4 55 12.7 48 48 W 5 7 29.92 1013 10 16.0934 0 0
11:56 am 11:56 Mostly Sunny 78 25.5 57 13.8 48 48 W 6 9 29.91 1013 10 16.0934 0 0
12:56 pm 12:56 Partly Cloudy 80 26.6 58 14.4 47 47 VRB 6 9 29.89 1012 10 16.0934 0 0
1:56 pm 13:56 Mostly Sunny 75 23.8 62 16.6 64 64 N 13 20 29.88 1012 10 16.0934 0 0
2:56 pm 14:56 Mostly Cloudy 74 23.3 59 15 60 60 NNW 17 28 29.89 1012 10 16.0934 0 0
3:56 pm 15:56 Mostly Sunny 69 20.5 59 15 71 71 NNW 13 20 29.89 1012 10 16.0934 0 0
4:56 pm 16:56 Mostly Cloudy with Light Rain 63 17.2 61 16.1 93 93 NNW 7 11 29.9 1013 5 8.0467 0 0.0254
5:12 pm 17:12 Mostly Cloudy with Light Rain 63 17 61 16 94 94 N 5 7 29.88 1012 4 6.43736 0.02 0.508
5:56 pm 17:56 Mostly Cloudy with Light Rain 62 16.6 62 16.6 100 100 N 8 13 29.88 1012 10 16.0934 0.03 0.762
6:56 pm 18:56 Mostly Cloudy with Light Rain 62 16.6 62 16.6 100 100 N 6 9 29.88 1012 2.5 4.02335 0.03 0.762
7:06 pm 19:06 Mostly Cloudy with Light Rain 63 17 63 17 100 100 N 6 9 29.85 1011 6 9.65604 0 0.0254
7:17 pm 19:17 Mostly Cloudy 63 17 63 17 100 100 N 8 13 29.85 1011 7 11.26538 0 0.0254
7:31 pm 19:31 Mostly Cloudy 63 17 61 16 94 94 N 8 13 29.85 1011 10 16.0934 0.01 0.254
7:56 pm 19:56 Mostly Cloudy 61 16.1 60 15.5 96 96 N 6 9 29.88 1012 10 16.0934 0.01 0.254
8:35 pm 20:35 Cloudy with Heavy Rain 61 16 61 16 100 100 NNW 7 11 29.91 1013 1.75 2.816345 0.06 1.524
8:45 pm 20:45 Cloudy with Light Rain 61 16 61 16 100 100 N 8 13 29.88 1012 3 4.82802 0.07 1.778
8:56 pm 20:56 Cloudy with Light Rain 60 15.5 60 15.5 100 100 N 8 13 29.89 1012 10 16.0934 0.08 2.032
9:06 pm 21:06 Mostly Cloudy with Light Rain 61 16 61 16 100 100 N 7 11 29.88 1012 10 16.0934 0 0.0254
9:30 pm 21:30 Mostly Cloudy with Light Rain 61 16 61 16 100 100 NNW 5 7 29.91 1013 5 8.0467 0.02 0.508
9:56 pm 21:56 Cloudy with Light Rain 60 15.5 60 15.5 100 100 N 5 7 29.89 1012 7 11.26538 0.02 0.508
10:15 pm 22:15 Mostly Cloudy 61 16 61 16 100 100 NNW 3 6 29.91 1013 10 16.0934 0 0.0254
10:27 pm 22:27 Cloudy with Light Rain 61 16 61 16 100 100 NNW 6 9 29.88 1012 9 14.48406 0.01 0.254
10:56 pm 22:56 Cloudy with Light Rain 61 16.1 61 16.1 100 100 NNW 6 9 29.87 1012 5 8.0467 0.01 0.254
11:07 pm 23:07 Cloudy with Heavy Rain 61 16 61 16 100 100 N 13 20 29.91 1013 1.75 2.816345 0.08 2.032
11:09 pm 23:09 Cloudy with Heavy Rain 61 16 61 16 100 100 N 13 20 29.91 1013 1.25 2.011675 0.11 2.794
11:17 pm 23:17 Cloudy with Heavy Rain 61 16 61 16 100 100 N 10 17 29.91 1013 1 1.60934 0.18 4.572
11:24 pm 23:24 Cloudy with Heavy Rain 61 16 61 16 100 100 N 9 15 29.91 1013 1.5 2.41401 0.23 5.842
11:30 pm 23:30 Cloudy with Heavy Rain 61 16 61 16 100 100 NNE 9 15 29.91 1013 2 3.21868 0.25 6.35
11:36 pm 23:36 Cloudy with Rain 61 16 59 15 94 94 N 12 19 29.91 1013 3 4.82802 0.26 6.604
11:47 pm 23:47 Cloudy with Rain 59 15 59 15 100 100 N 13 20 29.91 1013 4 6.43736 0.28 7.112
11:56 pm 23:56 Cloudy with Light Rain 59 15 59 15 100 100 N 9 15 29.88 1012 6 9.65604 0.28 7.112

Powered by AerisWeather